Date String (YYYY-MM-DD hh:mm:ss) UTC,Instrument flags,Ambient pressure (hPa),Sample flow (lpm),Bypass flow (lpm),Sample temperature (°C),Ambient temperature (°C),ASC tube jacket temperature (°C),LED temperature (°C),Box temperature (°C),Sample RH (%),Span deviation,Mass concentration (μg/m³),Mass concentration (μg/m³),Mass concentration (μg/m³)
DateTimeUTC,F1_M11,P_M11,Q1_M11,Q2_M11,T1_M11,T2_M11,T3_M11,T4_M11,T5_M11,U1_M11,ZSPAN_M11,X0_M11,X2_M11,X1_M11
2022-06-27 04:00:00,,0835.3,5.00,0.00,30.0,29.0,00.0,38.9,31.9,24.3,0000.0,0010.77,0004.93,0004.24
2022-06-27 04:01:00,,0835.4,4.99,0.00,30.1,29.0,00.0,38.9,31.9,24.3,0000.0,0010.72,0004.92,0004.23
2022-06-27 04:02:00,,0835.4,5.00,0.00,30.1,29.0,00.0,38.9,31.9,24.3,0000.0,0010.87,0004.93,0004.22
2022-06-27 04:03:00,,0835.4,5.00,0.00,30.1,29.0,00.0,38.9,32.0,24.3,0000.0,0010.99,0004.94,0004.21
2022-06-27 04:04:00,,0835.4,4.99,0.00,30.1,29.0,00.0,38.9,32.0,24.3,0000.0,0011.76,0004.96,0004.21
2022-06-27 04:05:00,,0835.4,5.00,0.00,30.1,29.0,00.0,38.9,32.0,24.3,0000.0,0011.82,0004.98,0004.21
2022-06-27 04:06:00,,0835.4,5.00,0.00,30.1,29.0,00.0,38.9,32.0,24.3,0000.0,0011.59,0004.97,0004.22
2022-06-27 04:07:00,,0835.4,5.01,0.00,30.1,29.1,00.0,38.9,32.0,24.3,0000.0,0011.28,0004.98,0004.23
2022-06-27 04:08:00,,0835.4,5.00,0.00,30.1,29.1,00.0,38.9,32.0,24.3,0000.0,0011.17,0005.00,0004.24
2022-06-27 04:09:00,,0835.4,5.00,0.00,30.1,29.1,00.0,38.9,32.0,24.3,0000.0,0011.16,0005.05,0004.25
2022-06-27 04:10:00,,0835.4,5.00,0.00,30.1,29.1,00.0,38.9,32.0,24.2,0000.0,0010.50,0005.06,0004.27
2022-06-27 04:11:00,,0835.4,4.99,0.00,30.1,29.1,00.0,38.9,32.0,24.2,0000.0,0010.51,0005.06,0004.27
2022-06-27 04:12:00,,0835.4,5.01,0.00,30.1,29.1,00.0,38.9,32.0,24.2,0000.0,0010.23,0005.07,0004.27
2022-06-27 04:13:00,,0835.4,4.99,0.00,30.1,29.1,00.0,39.0,32.0,24.1,0000.0,0009.91,0005.04,0004.27
2022-06-27 04:14:00,,0835.4,5.02,0.00,30.1,29.1,00.0,39.0,32.0,24.1,0000.0,0010.22,0005.04,0004.26
2022-06-27 04:15:00,,0835.4,5.00,0.00,30.1,29.1,00.0,39.0,32.0,24.1,0000.0,0009.65,0005.03,0004.26
2022-06-27 04:16:00,,0835.4,5.00,0.00,30.2,29.1,00.0,39.0,32.0,24.1,0000.0,0009.64,0004.99,0004.25
2022-06-27 04:17:00,,0835.4,5.01,0.00,30.2,29.1,00.0,39.0,32.0,24.1,0000.0,0010.04,0004.98,0004.24
2022-06-27 04:18:00,,0835.4,4.99,0.00,30.2,29.1,00.0,39.0,32.0,24.0,0000.0,0010.25,0005.00,0004.24
2022-06-27 04:19:00,,0835.4,4.99,0.00,30.2,29.1,00.0,39.0,32.0,24.0,0000.0,0010.23,0004.96,0004.22
2022-06-27 04:20:00,,0835.4,5.01,0.00,30.2,29.1,00.0,39.0,32.0,24.0,0000.0,0011.02,0004.89,0004.21
2022-06-27 04:21:00,,0835.4,4.99,0.00,30.2,29.1,00.0,39.0,32.0,23.9,0000.0,0011.36,0004.82,0004.19
2022-06-27 04:22:00,,0835.4,5.00,0.00,30.2,29.1,00.0,39.0,32.0,23.9,0000.0,0011.34,0004.79,0004.19
2022-06-27 04:23:00,,0835.4,4.99,0.00,30.2,29.2,00.0,39.0,32.0,23.9,0000.0,0011.27,0004.79,0004.19
2022-06-27 04:24:00,,0835.4,5.00,0.00,30.2,29.2,00.0,39.0,32.0,23.9,0000.0,0011.32,0004.80,0004.19
2022-06-27 04:25:00,,0835.3,4.99,0.00,30.2,29.2,00.0,39.0,32.0,23.9,0000.0,0011.59,0004.83,0004.19
2022-06-27 04:26:00,,0835.3,5.00,0.00,30.2,29.2,00.0,39.0,32.1,23.9,0000.0,0011.46,0004.83,0004.19
2022-06-27 04:27:00,,0835.3,5.00,0.00,30.2,29.2,00.0,39.0,32.1,23.9,0000.0,0011.47,0004.84,0004.19
2022-06-27 04:28:00,,0835.3,4.98,0.00,30.2,29.2,00.0,39.1,32.1,23.9,0000.0,0011.01,0004.84,0004.18
2022-06-27 04:29:00,,0835.3,4.99,0.00,30.2,29.2,00.0,39.1,32.1,23.9,0000.0,0010.78,0004.83,0004.17
2022-06-27 04:30:00,,0835.3,5.00,0.00,30.2,29.2,00.0,39.1,32.1,23.9,0000.0,0010.70,0004.82,0004.16
2022-06-27 04:31:00,,0835.3,5.00,0.00,30.2,29.2,00.0,39.1,32.1,23.8,0000.0,0009.93,0004.82,0004.16
2022-06-27 04:32:00,,0835.3,4.99,0.00,30.2,29.2,00.0,39.1,32.1,23.8,0000.0,0009.55,0004.86,0004.15
2022-06-27 04:33:00,,0835.4,5.00,0.00,30.3,29.2,00.0,39.1,32.1,23.8,0000.0,0009.30,0004.86,0004.13
2022-06-27 04:34:00,,0835.3,5.00,0.00,30.3,29.2,00.0,39.1,32.1,23.8,0000.0,0009.51,0004.85,0004.10
2022-06-27 04:35:00,,0835.3,5.00,0.00,30.3,29.2,00.0,39.1,32.1,23.8,0000.0,0009.75,0004.85,0004.09
2022-06-27 04:36:00,,0835.3,5.00,0.00,30.3,29.2,00.0,39.1,32.1,23.8,0000.0,0009.53,0004.81,0004.08
2022-06-27 04:37:00,,0835.3,4.99,0.00,30.3,29.2,00.0,39.1,32.1,23.7,0000.0,0009.41,0004.81,0004.08
2022-06-27 04:38:00,,0835.3,4.99,0.00,30.3,29.2,00.0,39.1,32.1,23.7,0000.0,0009.57,0004.85,0004.07
2022-06-27 04:39:00,,0835.4,5.00,0.00,30.3,29.2,00.0,39.1,32.1,23.7,0000.0,0009.74,0004.86,0004.07
2022-06-27 04:40:00,,0835.3,4.98,0.00,30.3,28.6,00.0,39.0,32.0,23.8,0000.0,0009.79,0004.89,0004.08
2022-06-27 04:41:00,,0835.4,5.00,0.00,30.2,27.9,00.0,39.0,31.8,23.9,0000.0,0009.86,0004.90,0004.08
2022-06-27 04:42:00,,0835.4,5.00,0.00,30.1,27.6,00.0,38.9,31.7,24.0,0000.0,0009.92,0004.92,0004.08
2022-06-27 04:43:00,,0835.3,5.01,0.00,30.0,27.6,00.0,38.9,31.6,24.2,0000.0,0009.63,0004.86,0004.08
2022-06-27 04:44:00,,0835.4,5.01,0.00,29.9,27.7,00.0,38.9,31.5,24.3,0000.0,0009.55,0004.84,0004.08
2022-06-27 04:45:00,,0835.4,5.00,0.00,29.9,27.7,00.0,38.9,31.5,24.3,0000.0,0009.20,0004.80,0004.08
2022-06-27 04:46:00,,0835.3,5.00,0.00,29.9,27.9,00.0,38.8,31.5,24.4,0000.0,0008.98,0004.81,0004.07
2022-06-27 04:47:00,,0835.3,4.99,0.00,29.8,28.0,00.0,38.8,31.5,24.4,0000.0,0008.88,0004.80,0004.07
2022-06-27 04:48:00,,0835.3,5.00,0.00,29.8,28.1,00.0,38.8,31.6,24.4,0000.0,0008.78,0004.78,0004.07
2022-06-27 04:49:00,,0835.3,5.00,0.00,29.8,28.2,00.0,38.8,31.6,24.4,0000.0,0008.80,0004.75,0004.05
2022-06-27 04:50:00,,0835.3,5.00,0.00,29.8,28.2,00.0,38.7,31.6,24.5,0000.0,0008.62,0004.73,0004.05
2022-06-27 04:51:00,,0835.3,5.01,0.00,29.8,28.3,00.0,38.7,31.6,24.5,0000.0,0008.57,0004.71,0004.04
2022-06-27 04:52:00,,0835.3,5.00,0.00,29.8,28.4,00.0,38.7,31.6,24.5,0000.0,0008.46,0004.67,0004.03
2022-06-27 04:53:00,,0835.3,5.00,0.00,29.8,28.5,00.0,38.7,31.6,24.5,0000.0,0008.24,0004.60,0004.00
2022-06-27 04:54:00,,0835.2,4.99,0.00,29.8,28.5,00.0,38.7,31.6,24.5,0000.0,0008.71,0004.60,0003.98
2022-06-27 04:55:00,,0835.2,5.01,0.00,29.8,28.6,00.0,38.7,31.7,24.5,0000.0,0008.79,0004.63,0003.98
2022-06-27 04:56:00,,0835.2,5.00,0.00,29.8,28.6,00.0,38.7,31.7,24.6,0000.0,0008.73,0004.61,0003.99
2022-06-27 04:57:00,,0835.2,5.00,0.00,29.8,28.6,00.0,38.7,31.7,24.6,0000.0,0008.81,0004.65,0004.00
2022-06-27 04:58:00,,0835.2,5.00,0.00,29.8,28.7,00.0,38.7,31.7,24.6,0000.0,0008.71,0004.63,0003.99
2022-06-27 04:59:00,,0835.2,4.99,0.00,29.8,28.7,00.0,38.7,31.7,24.6,0000.0,0009.13,0004.65,0003.98
